TimeEST,TemperatureF,Dew PointF,Humidity,Sea Level PressureIn,VisibilityMPH,Wind Direction,Wind SpeedMPH,Gust SpeedMPH,PrecipitationIn,Events,Conditions,WindDirDegrees,DateUTC
12:12 AM,41.9,33.1,71,29.48,10.0,WSW,19.6,25.3,N/A,,Overcast,240,2013-01-20 05:12:00
12:33 AM,41.9,32.0,68,29.47,10.0,WSW,16.1,28.8,N/A,,Overcast,250,2013-01-20 05:33:00
12:53 AM,41.9,26.4,54,29.48,10.0,West,18.4,49.5,N/A,,Scattered Clouds,270,2013-01-20 05:53:00
1:12 AM,37.6,30.2,75,29.50,10.0,West,18.4,35.7,N/A,,Mostly Cloudy,270,2013-01-20 06:12:00
1:33 AM,36.5,29.8,77,29.50,10.0,West,24.2,33.4,N/A,,Overcast,270,2013-01-20 06:33:00
1:53 AM,36.1,26.6,68,29.51,10.0,West,25.3,40.3,N/A,,Overcast,260,2013-01-20 06:53:00
2:12 AM,36.1,26.1,67,29.54,10.0,West,26.5,33.4,N/A,Snow,Light Snow,280,2013-01-20 07:12:00
2:33 AM,32.7,19.0,57,29.58,10.0,West,31.1,51.8,N/A,,Mostly Cloudy,270,2013-01-20 07:33:00
2:53 AM,30.2,16.2,56,29.61,10.0,West,27.6,42.6,N/A,,Mostly Cloudy,260,2013-01-20 07:53:00
3:12 AM,28.6,13.6,54,29.65,10.0,West,23.0,43.7,N/A,,Overcast,270,2013-01-20 08:12:00
3:33 AM,27.3,15.3,61,29.67,10.0,West,20.7,38.0,N/A,,Overcast,270,2013-01-20 08:33:00
3:53 AM,26.6,14.9,61,29.69,10.0,West,28.8,35.7,N/A,,Overcast,270,2013-01-20 08:53:00
4:12 AM,25.7,15.8,66,29.70,10.0,West,18.4,35.7,N/A,,Overcast,270,2013-01-20 09:12:00
4:33 AM,24.8,15.8,69,29.72,7.0,West,21.9,35.7,N/A,Snow,Light Snow,270,2013-01-20 09:33:00
4:53 AM,23.7,16.9,75,29.74,4.0,West,18.4,31.1,N/A,Snow,Light Snow,270,2013-01-20 09:53:00
5:12 AM,23.4,13.8,67,29.75,10.0,West,17.3,29.9,N/A,,Overcast,270,2013-01-20 10:12:00
5:33 AM,21.6,16.3,80,29.78,7.0,West,16.1,31.1,N/A,Snow,Light Snow,270,2013-01-20 10:33:00
5:53 AM,21.7,12.4,67,29.80,10.0,WNW,20.7,32.2,N/A,,Overcast,290,2013-01-20 10:53:00
6:12 AM,20.5,12.6,71,29.82,10.0,West,18.4,31.1,N/A,,Overcast,280,2013-01-20 11:12:00
6:33 AM,19.4,7.7,60,29.85,10.0,West,15.0,36.8,N/A,,Mostly Cloudy,280,2013-01-20 11:33:00
6:53 AM,18.9,7.2,60,29.87,10.0,West,18.4,31.1,N/A,,Mostly Cloudy,280,2013-01-20 11:53:00
7:12 AM,18.3,5.5,57,29.90,10.0,WNW,16.1,31.1,N/A,,Overcast,290,2013-01-20 12:12:00
7:33 AM,16.7,7.0,66,29.93,10.0,WNW,17.3,32.2,N/A,,Overcast,290,2013-01-20 12:33:00
7:53 AM,16.3,5.4,62,29.94,10.0,West,13.8,28.8,N/A,,Scattered Clouds,280,2013-01-20 12:53:00
8:12 AM,16.0,5.0,62,29.95,10.0,West,15.0,23.0,N/A,,Clear,270,2013-01-20 13:12:00
8:33 AM,16.3,5.2,62,29.97,10.0,West,20.7,27.6,N/A,,Clear,270,2013-01-20 13:33:00
8:53 AM,16.7,6.3,64,29.99,10.0,West,15.0,24.2,N/A,,Clear,280,2013-01-20 13:53:00
9:12 AM,17.2,5.5,60,30.00,10.0,West,16.1,27.6,N/A,,Clear,270,2013-01-20 14:12:00
9:33 AM,17.8,5.4,58,30.02,10.0,West,17.3,24.2,N/A,,Scattered Clouds,280,2013-01-20 14:33:00
9:53 AM,18.0,5.5,58,30.03,10.0,West,23.0,33.4,N/A,,Mostly Cloudy,270,2013-01-20 14:53:00
10:12 AM,18.1,5.7,58,30.04,10.0,West,18.4,26.5,N/A,,Overcast,280,2013-01-20 15:12:00
10:33 AM,18.9,6.6,59,30.06,10.0,WNW,17.3,25.3,N/A,,Overcast,290,2013-01-20 15:33:00
10:53 AM,19.2,6.1,57,30.06,10.0,West,15.0,27.6,N/A,,Overcast,280,2013-01-20 15:53:00
11:13 AM,20.1,6.8,56,30.06,10.0,WNW,11.5,24.2,N/A,,Overcast,290,2013-01-20 16:13:00
11:33 AM,20.7,7.0,56,30.07,10.0,West,16.1,25.3,N/A,,Overcast,280,2013-01-20 16:33:00
11:52 AM,20.1,6.4,55,30.07,10.0,West,13.8,26.5,N/A,,Overcast,280,2013-01-20 16:52:00
12:13 PM,20.5,7.3,57,30.08,10.0,West,16.1,23.0,N/A,,Overcast,270,2013-01-20 17:13:00
12:33 PM,19.8,7.0,58,30.07,10.0,West,13.8,24.2,N/A,,Overcast,260,2013-01-20 17:33:00
12:52 PM,19.9,6.6,56,30.07,10.0,WNW,16.1,23.0,N/A,,Overcast,300,2013-01-20 17:52:00
1:13 PM,19.9,6.1,55,30.07,10.0,West,11.5,20.7,N/A,,Overcast,270,2013-01-20 18:13:00
1:52 PM,20.3,5.4,52,30.07,10.0,West,13.8,21.9,N/A,,Overcast,260,2013-01-20 18:52:00
2:13 PM,19.8,5.5,54,30.07,10.0,West,16.1,20.7,N/A,,Overcast,260,2013-01-20 19:13:00
2:33 PM,19.8,5.9,55,30.08,10.0,West,13.8,20.7,N/A,,Overcast,280,2013-01-20 19:33:00
2:52 PM,19.6,5.9,55,30.09,10.0,West,15.0,21.9,N/A,,Overcast,280,2013-01-20 19:52:00
3:13 PM,19.4,7.9,61,30.10,10.0,West,13.8,18.4,N/A,,Overcast,280,2013-01-20 20:13:00
3:33 PM,19.0,7.9,62,30.10,10.0,West,10.4,18.4,N/A,,Overcast,270,2013-01-20 20:33:00
3:52 PM,18.9,7.2,60,30.10,7.0,West,13.8,18.4,N/A,Snow,Light Snow,280,2013-01-20 20:52:00
4:13 PM,19.0,6.4,58,30.11,10.0,West,12.7,20.7,N/A,,Overcast,280,2013-01-20 21:13:00
4:33 PM,19.0,3.7,51,30.10,10.0,West,16.1,20.7,N/A,,Overcast,270,2013-01-20 21:33:00
4:52 PM,18.5,4.8,55,30.10,10.0,West,9.2,23.0,N/A,,Overcast,280,2013-01-20 21:52:00
5:13 PM,18.0,3.4,53,30.11,10.0,West,11.5,19.6,N/A,,Overcast,270,2013-01-20 22:13:00
5:33 PM,18.0,3.7,54,30.12,10.0,West,11.5,-,N/A,,Overcast,280,2013-01-20 22:33:00
5:52 PM,17.6,2.3,51,30.12,10.0,West,10.4,17.3,N/A,,Overcast,270,2013-01-20 22:52:00
6:13 PM,17.4,3.0,53,30.12,10.0,West,12.7,18.4,N/A,,Overcast,280,2013-01-20 23:13:00
6:33 PM,17.4,3.9,56,30.12,10.0,WNW,11.5,17.3,N/A,,Overcast,290,2013-01-20 23:33:00
6:52 PM,17.4,3.7,55,30.12,10.0,WNW,10.4,20.7,N/A,,Overcast,290,2013-01-20 23:52:00
7:13 PM,17.4,5.0,58,30.13,10.0,WNW,11.5,-,N/A,,Overcast,290,2013-01-21 00:13:00
7:52 PM,16.7,5.2,61,30.13,10.0,West,8.1,-,N/A,,Overcast,280,2013-01-21 00:52:00
8:13 PM,16.3,3.6,57,30.13,10.0,West,9.2,-,N/A,,Overcast,280,2013-01-21 01:13:00
8:33 PM,16.2,2.7,55,30.13,10.0,West,9.2,-,N/A,,Overcast,280,2013-01-21 01:33:00
8:53 PM,15.8,2.3,55,30.14,10.0,West,9.2,18.4,N/A,,Overcast,280,2013-01-21 01:53:00
9:13 PM,15.8,1.9,54,30.13,10.0,West,9.2,-,N/A,,Overcast,270,2013-01-21 02:13:00
9:33 PM,15.6,1.9,55,30.13,10.0,West,5.8,-,N/A,,Overcast,280,2013-01-21 02:33:00
9:53 PM,15.3,4.1,61,30.13,10.0,West,8.1,-,N/A,,Overcast,270,2013-01-21 02:53:00
10:13 PM,15.3,4.6,63,30.12,10.0,West,10.4,-,N/A,,Overcast,270,2013-01-21 03:13:00
10:33 PM,14.9,5.2,65,30.12,10.0,West,6.9,-,N/A,,Overcast,270,2013-01-21 03:33:00
10:53 PM,14.5,5.9,69,30.13,10.0,West,4.6,-,N/A,,Overcast,260,2013-01-21 03:53:00
11:13 PM,14.4,5.0,66,30.12,10.0,West,8.1,-,N/A,,Overcast,260,2013-01-21 04:13:00
11:32 PM,14.4,4.1,64,30.12,10.0,West,4.6,-,N/A,,Overcast,280,2013-01-21 04:32:00
11:53 PM,14.4,3.9,63,30.12,10.0,West,4.6,-,N/A,,Overcast,260,2013-01-21 04:53:00